Home   Weather   Cali   Past weeks

Flag for Colombia Past Weather in Cali, Colombia — Yesterday and Last 2 Weeks

Now
75 °F

Broken clouds.


Feels Like: 76 °F
Forecast: 65 / 82 °F
Wind: No wind

Location: Cali / Alfonso Bonillaaragon

Current Time: Feb 28, 2017 at 12:04:05 pm

Latest Report: Feb 28, 2017 at 11:00 am


Visibility: 4 mi

Pressure: 30.06 "Hg (26.93 "Hg at 955m altitude)

Humidity: 78%

Dew Point: 68 °F

Location of CaliLocation

Past Weather in Cali — Graph

°F

Cali Temperature Yesterday

Maximum temperature yesterday: 86 °F (at 2:00 pm)
Minimum temperature yesterday: 66 °F (at 12:00 am)
Average temperature yesterday: 75 °F

High & Low Weather Summary for the Past Weeks

 TemperatureHumidityPressure
High90 °F (Feb 14, 3:00 pm)100% (Feb 14, 7:00 am)30.15 "Hg (Feb 14, 7:00 am)
Low61 °F (Feb 15, 5:00 am)31% (Feb 23, 2:00 pm)29.86 "Hg (Feb 23, 4:00 pm)
Average74 °F74%30.01 "Hg
* Reported Feb 13 11:00 am — Feb 28 11:00 am, Cali, Weather by CustomWeather, © 2017

Note: Actual official high and low records may vary slightly from our data, if they occured in-between our weather recording intervals... More about our weather records

Advertising

Cali Weather History for the Previous 24 Hours

Scroll right to see more
 ConditionsComfort  
Time TempWeatherWind HumidityBarometerVisibility
11:00 am
Tue, Feb 28
75 °FBroken clouds.No wind78%30.06 "Hg4 mi
10:00 am72 °FFog.No wind88%30.08 "Hg4 mi
9:00 am70 °FFog.3 mph94%30.08 "Hg3 mi
8:00 am70 °FDrizzle. Broken clouds.3 mph94%30.06 "Hg3 mi
7:00 am68 °FBroken clouds.5 mph100%30.05 "Hg3 mi
6:00 am68 °FPassing clouds.3 mph100%30.02 "Hg4 mi
5:30 am68 °FScattered showers. Passing clouds.3 mph100%30.00 "Hg6 mi
5:00 am68 °FScattered showers. Passing clouds.3 mph100%30.00 "Hg6 mi
4:00 am68 °FPassing clouds.3 mph100%30.01 "Hg6 mi
3:00 am68 °FPassing clouds.5 mph100%30.01 "Hg5 mi
2:00 am70 °FPassing clouds.5 mph94%30.00 "Hg6 mi
1:03 am70 °FPassing clouds.3 mph94%30.02 "Hg6 mi
12:00 am73 °FPassing clouds.12 mph74%30.03 "HgN/A
11:00 pm
Mon, Feb 27
73 °FPassing clouds.6 mph74%30.03 "HgN/A
10:00 pm75 °FPassing clouds.6 mph69%30.02 "HgN/A
9:00 pm73 °FPassing clouds.6 mph74%29.99 "HgN/A
8:00 pm77 °FPassing clouds.12 mph65%29.95 "HgN/A
7:00 pm79 °FPassing clouds.12 mph61%29.92 "HgN/A
6:00 pm81 °FPartly sunny.14 mph58%29.89 "HgN/A
5:00 pm84 °FScattered clouds.15 mph48%29.88 "HgN/A
4:00 pm84 °FScattered clouds.16 mph51%29.88 "HgN/A
3:00 pm86 °FBroken clouds.12 mph46%29.90 "Hg6 mi
2:00 pm86 °FScattered clouds.5 mph46%29.93 "Hg6 mi
1:00 pm84 °FScattered clouds.6 mph48%29.98 "Hg6 mi
12:00 pm82 °FScattered clouds.3 mph55%30.01 "HgN/A
Weather by CustomWeather, © 2017

See weather overviewHow to use our weather pages